KPF418 LBGO-LTFM

Flight info

Callsign KPF418
Flight time 0h 57m
Altitude 39000
Route AMTOV N605 ALIVI L742 RIXEN
Aircraft CL60/M-SBDE1E2E3FGHIJ1J4J5J7M3RWXYZ/LB1V1D1

Departure

Time 2026-05-05 15:01
Airport Gorna Oryahovitsa Airport (LBGO)

Arrival

Time 2026-05-05 15:58
Airport İstanbul Airport (LTFM)
Time Latitude Longitude Altitude Speed Heading
2026-05-05 14:54 43.14685 25.71850 299 ft 0 kts 334°
2026-05-05 14:59 43.14702 25.71846 299 ft 10 kts
2026-05-05 14:59 43.14796 25.71873 298 ft 13 kts
2026-05-05 14:59 43.14905 25.71893 298 ft 18 kts
2026-05-05 15:00 43.15004 25.71915 297 ft 6 kts
2026-05-05 15:00 43.15031 25.71921 297 ft 5 kts
2026-05-05 15:00 43.15071 25.71924 297 ft 3 kts 328°
2026-05-05 15:00 43.15083 25.71871 297 ft 16 kts 276°
2026-05-05 15:01 43.15145 25.71303 298 ft 99 kts 277°
2026-05-05 15:01 43.15290 25.69911 447 ft 177 kts 279°
2026-05-05 15:01 43.15536 25.68230 1357 ft 192 kts 284°
2026-05-05 15:01 43.15806 25.66490 2577 ft 193 kts 283°
2026-05-05 15:02 43.16058 25.64735 3751 ft 195 kts 283°
2026-05-05 15:02 43.16300 25.62944 4930 ft 196 kts 283°
2026-05-05 15:02 43.16758 25.61264 5928 ft 201 kts 310°
2026-05-05 15:02 43.18055 25.60164 6369 ft 243 kts 352°
2026-05-05 15:03 43.19750 25.60533 7452 ft 259 kts 27°
2026-05-05 15:03 43.20984 25.62262 8756 ft 268 kts 62°
2026-05-05 15:03 43.21325 25.64746 10016 ft 277 kts 88°
2026-05-05 15:03 43.21207 25.67483 10558 ft 301 kts 90°
2026-05-05 15:04 43.21072 25.70480 10778 ft 330 kts 90°
2026-05-05 15:04 43.20932 25.73693 11352 ft 343 kts 90°
2026-05-05 15:04 43.20790 25.76976 12095 ft 348 kts 90°
2026-05-05 15:04 43.20649 25.80308 12852 ft 352 kts 90°
2026-05-05 15:05 43.20364 25.87073 14294 ft 359 kts 91°
2026-05-05 15:05 43.19803 25.90410 14988 ft 369 kts 109°
2026-05-05 15:05 43.18641 25.93621 15581 ft 376 kts 114°
2026-05-05 15:06 43.17447 25.96820 16177 ft 380 kts 114°
2026-05-05 15:06 43.16238 26.00068 16787 ft 383 kts 114°
2026-05-05 15:06 43.15017 26.03344 17377 ft 387 kts 114°
2026-05-05 15:06 43.13782 26.06658 17923 ft 391 kts 114°
2026-05-05 15:07 43.12557 26.09941 18458 ft 394 kts 114°
2026-05-05 15:07 43.11290 26.13329 18983 ft 397 kts 114°
2026-05-05 15:07 43.10028 26.16705 19474 ft 401 kts 113°
2026-05-05 15:07 43.08753 26.20111 19950 ft 404 kts 113°
2026-05-05 15:08 43.07471 26.23530 20421 ft 407 kts 114°
2026-05-05 15:08 43.06166 26.27008 20890 ft 409 kts 114°
2026-05-05 15:08 43.04866 26.30470 21327 ft 412 kts 114°
2026-05-05 15:08 43.03552 26.33965 21742 ft 415 kts 114°
2026-05-05 15:09 43.02232 26.37472 22136 ft 417 kts 114°
2026-05-05 15:09 43.00886 26.41042 22541 ft 420 kts 114°
2026-05-05 15:09 42.99556 26.44565 22926 ft 422 kts 114°
2026-05-05 15:09 42.98191 26.48178 23284 ft 424 kts 114°
2026-05-05 15:10 42.96829 26.51778 23653 ft 427 kts 114°
2026-05-05 15:10 42.95477 26.55347 23990 ft 429 kts 114°
2026-05-05 15:10 42.94089 26.59004 24347 ft 431 kts 114°
2026-05-05 15:10 42.92717 26.62618 24703 ft 432 kts 114°
2026-05-05 15:11 42.91306 26.66330 25072 ft 440 kts 115°
2026-05-05 15:11 42.89880 26.70082 25758 ft 446 kts 115°
2026-05-05 15:11 42.88456 26.73821 26626 ft 446 kts 115°
2026-05-05 15:11 42.87027 26.77566 27409 ft 447 kts 115°
2026-05-05 15:12 42.85589 26.81331 28057 ft 450 kts 115°
2026-05-05 15:12 42.84146 26.85103 28649 ft 454 kts 115°
2026-05-05 15:12 42.82662 26.88977 29197 ft 457 kts 115°
2026-05-05 15:12 42.81191 26.92811 29778 ft 459 kts 115°
2026-05-05 15:13 42.79719 26.96641 30474 ft 457 kts 115°
2026-05-05 15:13 42.78249 27.00463 30894 ft 460 kts 115°
2026-05-05 15:13 42.76738 27.04387 31013 ft 467 kts 115°
2026-05-05 15:14 42.73696 27.12264 31040 ft 469 kts 115°
2026-05-05 15:14 42.70670 27.20081 31045 ft 467 kts 115°
2026-05-05 15:15 42.67645 27.27869 31046 ft 466 kts 115°
2026-05-05 15:15 42.64613 27.35658 31052 ft 466 kts 115°
2026-05-05 15:16 42.61576 27.43439 31047 ft 465 kts 115°
2026-05-05 15:16 42.58525 27.51232 31056 ft 464 kts 115°
2026-05-05 15:17 42.55508 27.58917 31057 ft 463 kts 115°
2026-05-05 15:17 42.52458 27.66667 31055 ft 464 kts 116°
2026-05-05 15:18 42.49423 27.74359 31061 ft 464 kts 116°
2026-05-05 15:18 42.46373 27.82069 31057 ft 464 kts 116°
2026-05-05 15:19 42.43313 27.89781 31061 ft 463 kts 116°
2026-05-05 15:19 42.40272 27.97425 31063 ft 463 kts 117°
2026-05-05 15:20 42.37209 28.05106 31065 ft 463 kts 116°
2026-05-05 15:20 42.34141 28.12778 31060 ft 463 kts 117°
2026-05-05 15:21 42.31050 28.20489 31060 ft 464 kts 116°
2026-05-05 15:21 42.27977 28.28134 31061 ft 464 kts 116°
2026-05-05 15:22 42.24903 28.35761 31061 ft 464 kts 116°
2026-05-05 15:22 42.21826 28.43372 30885 ft 447 kts 116°
2026-05-05 15:22 42.20360 28.46993 30240 ft 441 kts 116°
2026-05-05 15:23 42.18883 28.50638 29357 ft 439 kts 116°
2026-05-05 15:23 42.17433 28.54208 28536 ft 436 kts 116°
2026-05-05 15:23 42.15988 28.57761 27803 ft 431 kts 116°
2026-05-05 15:23 42.14565 28.61252 27137 ft 425 kts 116°
2026-05-05 15:24 42.13144 28.64730 26497 ft 418 kts 116°
2026-05-05 15:24 42.11751 28.68137 25865 ft 413 kts 116°
2026-05-05 15:24 42.10189 28.71305 25265 ft 410 kts 127°
2026-05-05 15:24 42.08113 28.73922 24631 ft 409 kts 142°
2026-05-05 15:25 42.05653 28.75758 23966 ft 409 kts 156°
2026-05-05 15:25 42.02901 28.76737 23298 ft 409 kts 171°
2026-05-05 15:25 42.00057 28.76957 22628 ft 406 kts 177°
2026-05-05 15:25 41.97288 28.77061 21992 ft 401 kts 177°
2026-05-05 15:26 41.94494 28.77173 21430 ft 394 kts 177°
2026-05-05 15:26 41.91788 28.77281 21098 ft 382 kts 177°
2026-05-05 15:26 41.89128 28.77387 20763 ft 378 kts 177°
2026-05-05 15:26 41.86503 28.77491 20445 ft 374 kts 177°
2026-05-05 15:27 41.83917 28.77592 20133 ft 368 kts 178°
2026-05-05 15:27 41.81383 28.77691 19831 ft 361 kts 178°
2026-05-05 15:27 41.78876 28.77504 19531 ft 354 kts 191°
2026-05-05 15:27 41.76580 28.76438 19205 ft 349 kts 209°
2026-05-05 15:28 41.74643 28.74569 18891 ft 344 kts 226°
2026-05-05 15:28 41.73115 28.72101 18553 ft 340 kts 236°
2026-05-05 15:28 41.71746 28.69561 18306 ft 339 kts 236°
2026-05-05 15:28 41.70347 28.66986 18009 ft 338 kts 236°
2026-05-05 15:29 41.68973 28.64462 17729 ft 337 kts 237°
2026-05-05 15:29 41.67584 28.61912 17453 ft 336 kts 237°
2026-05-05 15:29 41.66214 28.59399 17092 ft 338 kts 237°
2026-05-05 15:29 41.64836 28.56877 16828 ft 332 kts 237°
2026-05-05 15:30 41.63261 28.54590 16618 ft 337 kts 217°
2026-05-05 15:30 41.61168 28.53236 16398 ft 338 kts 197°
2026-05-05 15:30 41.58822 28.52770 16178 ft 337 kts 179°
2026-05-05 15:30 41.56495 28.53241 15956 ft 335 kts 161°
2026-05-05 15:31 41.54418 28.54566 15749 ft 330 kts 143°
2026-05-05 15:31 41.52744 28.56596 15539 ft 324 kts 126°
2026-05-05 15:31 41.51562 28.59111 15328 ft 318 kts 112°
2026-05-05 15:31 41.50589 28.61788 15142 ft 327 kts 112°
2026-05-05 15:32 41.49554 28.64647 14995 ft 359 kts 112°
2026-05-05 15:32 41.48434 28.67715 14921 ft 376 kts 113°
2026-05-05 15:32 41.47292 28.70886 14854 ft 375 kts 109°
2026-05-05 15:32 41.46686 28.74221 14796 ft 368 kts 91°
2026-05-05 15:33 41.46717 28.77616 14738 ft 365 kts 84°
2026-05-05 15:33 41.46832 28.81041 14686 ft 364 kts 84°
2026-05-05 15:33 41.46935 28.84388 14653 ft 364 kts 84°
2026-05-05 15:33 41.47037 28.87777 14604 ft 364 kts 84°
2026-05-05 15:34 41.47136 28.91109 14558 ft 359 kts 84°
2026-05-05 15:34 41.47230 28.94397 14507 ft 351 kts 84°
2026-05-05 15:34 41.47321 28.97608 14441 ft 342 kts 84°
2026-05-05 15:34 41.47257 29.00718 14246 ft 330 kts 92°
2026-05-05 15:35 41.46997 29.03739 13745 ft 325 kts 92°
2026-05-05 15:35 41.46742 29.06682 13225 ft 322 kts 93°
2026-05-05 15:35 41.46486 29.09641 12717 ft 318 kts 92°
2026-05-05 15:35 41.46233 29.12547 12251 ft 314 kts 92°
2026-05-05 15:36 41.45866 29.15397 11846 ft 311 kts 103°
2026-05-05 15:36 41.44905 29.17972 11461 ft 311 kts 123°
2026-05-05 15:36 41.43447 29.20046 11100 ft 308 kts 133°
2026-05-05 15:36 41.41923 29.21984 10996 ft 294 kts 133°
2026-05-05 15:37 41.40453 29.23866 10786 ft 287 kts 133°
2026-05-05 15:37 41.39032 29.25685 10407 ft 285 kts 133°
2026-05-05 15:37 41.37612 29.27499 10207 ft 276 kts 133°
2026-05-05 15:37 41.36064 29.28982 10060 ft 279 kts 153°
2026-05-05 15:38 41.34176 29.29615 9976 ft 281 kts 176°
2026-05-05 15:38 41.32201 29.29637 9980 ft 283 kts 180°
2026-05-05 15:38 41.30242 29.29633 9980 ft 284 kts 180°
2026-05-05 15:38 41.28238 29.29634 9979 ft 284 kts 180°
2026-05-05 15:39 41.26265 29.29633 9986 ft 285 kts 180°
2026-05-05 15:39 41.24266 29.29719 9985 ft 285 kts 170°
2026-05-05 15:39 41.22429 29.30580 9987 ft 282 kts 146°
2026-05-05 15:39 41.20958 29.32287 9979 ft 278 kts 128°
2026-05-05 15:40 41.19670 29.34211 9981 ft 278 kts 128°
2026-05-05 15:40 41.18380 29.36121 9991 ft 278 kts 128°
2026-05-05 15:40 41.17072 29.38053 9983 ft 278 kts 129°
2026-05-05 15:40 41.15697 29.39850 9983 ft 280 kts 141°
2026-05-05 15:41 41.14046 29.41301 9976 ft 280 kts 145°
2026-05-05 15:41 41.12400 29.42702 9985 ft 281 kts 144°
2026-05-05 15:41 41.10760 29.44103 9992 ft 281 kts 145°
2026-05-05 15:41 41.09108 29.45513 9977 ft 281 kts 145°
2026-05-05 15:42 41.07402 29.46835 9979 ft 282 kts 156°
2026-05-05 15:42 41.05545 29.47673 9984 ft 283 kts 161°
2026-05-05 15:42 41.03651 29.48464 9986 ft 283 kts 161°
2026-05-05 15:42 41.01769 29.49257 9981 ft 283 kts 161°
2026-05-05 15:43 40.99873 29.49983 9982 ft 282 kts 169°
2026-05-05 15:43 40.97914 29.49932 9954 ft 281 kts 194°
2026-05-05 15:43 40.96126 29.48877 9826 ft 278 kts 219°
2026-05-05 15:43 40.94857 29.47038 9670 ft 270 kts 243°
2026-05-05 15:44 40.94239 29.44708 9491 ft 263 kts 265°
2026-05-05 15:44 40.94064 29.42324 9316 ft 261 kts 269°
2026-05-05 15:44 40.93908 29.39918 9140 ft 260 kts 269°
2026-05-05 15:44 40.93749 29.37536 8966 ft 260 kts 269°
2026-05-05 15:45 40.93589 29.35156 8791 ft 259 kts 269°
2026-05-05 15:45 40.93428 29.32767 8615 ft 258 kts 268°
2026-05-05 15:45 40.93267 29.30405 8441 ft 257 kts 268°
2026-05-05 15:45 40.93108 29.28065 8269 ft 257 kts 268°
2026-05-05 15:46 40.92947 29.25719 8094 ft 256 kts 268°
2026-05-05 15:46 40.92783 29.23352 7922 ft 256 kts 268°
2026-05-05 15:46 40.92621 29.21011 7748 ft 255 kts 268°
2026-05-05 15:46 40.92458 29.18684 7576 ft 254 kts 268°
2026-05-05 15:47 40.92293 29.16329 7399 ft 254 kts 268°
2026-05-05 15:47 40.92130 29.14001 7226 ft 253 kts 268°
2026-05-05 15:47 40.91967 29.11690 7048 ft 253 kts 269°
2026-05-05 15:47 40.91803 29.09384 6875 ft 252 kts 269°
2026-05-05 15:48 40.91637 29.07056 6561 ft 253 kts 269°
2026-05-05 15:48 40.91472 29.04753 6235 ft 249 kts 268°
2026-05-05 15:48 40.91309 29.02479 5912 ft 245 kts 268°
2026-05-05 15:48 40.91222 29.00247 5586 ft 240 kts 277°
2026-05-05 15:49 40.91401 28.98075 5262 ft 235 kts 281°
2026-05-05 15:49 40.91596 28.95955 4959 ft 232 kts 280°
2026-05-05 15:49 40.91790 28.93814 4646 ft 230 kts 280°
2026-05-05 15:49 40.91978 28.91733 4344 ft 230 kts 280°
2026-05-05 15:50 40.92168 28.89611 4052 ft 229 kts 280°
2026-05-05 15:50 40.92352 28.87538 3983 ft 229 kts 280°
2026-05-05 15:50 40.92541 28.85416 3981 ft 230 kts 281°
2026-05-05 15:50 40.92728 28.83299 3982 ft 231 kts 281°
2026-05-05 15:51 40.92935 28.81194 3982 ft 230 kts 287°
2026-05-05 15:51 40.93626 28.79346 3988 ft 223 kts 315°
2026-05-05 15:51 40.94847 28.78136 3986 ft 217 kts 332°
2026-05-05 15:51 40.96131 28.77143 3990 ft 212 kts 332°
2026-05-05 15:52 40.97468 28.76385 3990 ft 209 kts 351°
2026-05-05 15:52 40.98923 28.76259 3985 ft 208 kts 358°
2026-05-05 15:52 41.00388 28.76194 3983 ft 208 kts 359°
2026-05-05 15:52 41.01845 28.76154 3984 ft 207 kts 359°
2026-05-05 15:53 41.03283 28.76121 3988 ft 206 kts 359°
2026-05-05 15:53 41.04694 28.76092 3994 ft 199 kts 359°
2026-05-05 15:53 41.06062 28.76065 4005 ft 190 kts 359°
2026-05-05 15:53 41.07399 28.76039 3934 ft 192 kts 359°
2026-05-05 15:54 41.08720 28.76013 3699 ft 190 kts 359°
2026-05-05 15:54 41.10054 28.75987 3467 ft 191 kts 359°
2026-05-05 15:54 41.11396 28.75961 3213 ft 190 kts 360°
2026-05-05 15:54 41.12717 28.75935 2962 ft 189 kts 360°
2026-05-05 15:55 41.13998 28.75910 2725 ft 179 kts 359°
2026-05-05 15:55 41.15232 28.75886 2486 ft 174 kts
2026-05-05 15:55 41.16409 28.75863 2262 ft 165 kts 359°
2026-05-05 15:55 41.17524 28.75841 2057 ft 156 kts
2026-05-05 15:56 41.18587 28.75820 1820 ft 149 kts
2026-05-05 15:56 41.19640 28.75799 1642 ft 151 kts
2026-05-05 15:56 41.20680 28.75780 1502 ft 148 kts 359°
2026-05-05 15:56 41.21687 28.75760 1252 ft 133 kts
2026-05-05 15:57 41.22568 28.75740 1128 ft 125 kts
2026-05-05 15:57 41.23424 28.75724 912 ft 120 kts
2026-05-05 15:57 41.24273 28.75708 771 ft 121 kts
2026-05-05 15:57 41.25112 28.75694 592 ft 119 kts 359°
2026-05-05 15:58 41.25960 28.75677 446 ft 123 kts
2026-05-05 15:58 41.26769 28.75664 337 ft 107 kts 359°
2026-05-05 15:58 41.27425 28.75641 333 ft 80 kts 360°
2026-05-05 15:58 41.27620 28.75607 333 ft 12 kts 266°
2026-05-05 15:59 41.27612 28.75493 333 ft 8 kts 267°
2026-05-05 15:59 41.27610 28.75422 333 ft 6 kts 268°
2026-05-05 15:59 41.27610 28.75409 333 ft 0 kts 268°
2026-05-05 16:00 41.27610 28.75408 333 ft 1 kts 268°
2026-05-05 16:00 41.27599 28.75363 333 ft 9 kts 214°
2026-05-05 16:01 41.27505 28.75359 333 ft 15 kts 179°
2026-05-05 16:01 41.27380 28.75363 333 ft 20 kts 179°
2026-05-05 16:01 41.27237 28.75366 333 ft 21 kts 179°
2026-05-05 16:01 41.27079 28.75368 333 ft 24 kts 178°
2026-05-05 16:02 41.26922 28.75371 333 ft 20 kts 180°
2026-05-05 16:02 41.26775 28.75373 333 ft 20 kts 179°
2026-05-05 16:02 41.26639 28.75376 333 ft 19 kts 179°
2026-05-05 16:02 41.26492 28.75379 333 ft 22 kts 179°
2026-05-05 16:03 41.26327 28.75383 333 ft 27 kts 180°
2026-05-05 16:03 41.26116 28.75386 333 ft 33 kts 179°
2026-05-05 16:03 41.25920 28.75390 333 ft 30 kts 179°
2026-05-05 16:03 41.25728 28.75392 333 ft 24 kts 178°
2026-05-05 16:04 41.25556 28.75397 333 ft 25 kts 180°
2026-05-05 16:04 41.25389 28.75400 333 ft 21 kts 180°
2026-05-05 16:04 41.25333 28.75401 333 ft 7 kts 179°
2026-05-05 16:04 41.25241 28.75403 333 ft 13 kts 179°
2026-05-05 16:05 41.25176 28.75375 333 ft 8 kts 262°
2026-05-05 16:05 41.25177 28.75300 333 ft 8 kts 270°
2026-05-05 16:05 41.25176 28.75263 333 ft 1 kts 269°
2026-05-05 16:05 41.25176 28.75262 333 ft 0 kts 269°